Regional Weather Roundup
Issued by NWS Albany, NY

Home | Current Version | Previous Version | Graphics & Text | Print | Product List | Glossary On
Versions: 1 2 3 4 5 6 7 8 9 10 11 12 13 14 15 16 17 18 19 20 21 22 23 24 25 26 27
000
ASUS41 KALY 211310
RWRALY

NEW YORK STATE HOURLY WEATHER ROUNDUP
NATIONAL WEATHER SERVICE ALBANY NY
900 AM EDT THU SEP 21 2017

NOTE: "FAIR" INDICATES FEW OR NO CLOUDS BELOW 12,000 FEET WITH NO
SIGNIFICANT WEATHER AND/OR NO OBSTRUCTIONS TO VISIBILITY.

NYZ032-033-038>043-046>054-057>066-NYZ062>081-082-084-211400-
EAST


CITY           SKY/WX    TMP DP  RH WIND       PRES   REMARKS
ALBANY         PTSUNNY   68  63  84 N8        30.09R
GLENS FALLS    MOSUNNY   67  62  84 NE9       30.09S
POUGHKEEPSIE   PTSUNNY   70  64  81 N10       30.03S
NEWBURGH       MOSUNNY   72  66  83 NE12G21   30.06R
MONTGOMERY     PTSUNNY   70  65  84 N8        30.05S
WHITE PLAINS   CLOUDY    71  63  75 NW13      30.01R
ISLIP          CLOUDY    73  64  73 N15G23    29.96R
NEW YORK CITY  CLOUDY    74  65  73 N13       29.99R
CENTRAL PARK   CLOUDY    72  64  76 VRB6      30.04R
$$

NYZ005>009-017-018-044>046-055-056-211400-
CENTRAL


CITY           SKY/WX    TMP DP  RH WIND       PRES   REMARKS
FULTON         FOG       63  62  97 CALM      30.11S VSB 1/2
SYRACUSE       CLOUDY    63  63 100 SE3       30.10S FOG
ROME           FOG       61  61 100 CALM      30.12S VSB 1/4
ELMIRA         CLOUDY    62  62 100 W3        30.13S FOG
BINGHAMTON     FOG       59  59 100 CALM      30.13S VSB 1/4
MONTICELLO     MOSUNNY   68  62  81 NW5       30.11R
$$

NYZ026>034-041>043-087-211400-
NORTH


CITY           SKY/WX    TMP DP  RH WIND       PRES   REMARKS
WATERTOWN      CLOUDY    63  63 100 E7        30.11F FOG
FORT DRUM      NOT AVBL
OGDENSBURG     FAIR      64  62  91 NE3       30.13S
MASSENA        SUNNY     63  57  81 E6        30.15S
SARANAC LAKE   CLOUDY    61  61 100 NE3       30.15S
PLATTSBURGH    CLOUDY    64  55  72 NE6       30.13R
$$

NYZ001>004-010>016-019>021-085-211400-
WEST


CITY           SKY/WX    TMP DP  RH WIND       PRES   REMARKS
NIAGARA FALLS  SUNNY     67  60  78 CALM      30.12R HAZE
BUFFALO        MOSUNNY   64  60  87 SE3       30.12R
DUNKIRK          N/A     64  62  93 CALM      30.12R
JAMESTOWN      MOSUNNY   61  61 100 CALM      30.16R
WELLSVILLE     CLOUDY    58  57  97 MISG      30.18R
ROCHESTER      FOG       62  62 100 SW3       30.13S VSB 1/4
PENN YAN       CLOUDY    65  62  90 W3        30.14S FOG
$$

             KEY
       WCI = WIND CHILL INDEX
       VSB = VISIBILITY
       HX  = HEAT INDEX
$$




USA.gov is the U.S. government's official web portal to all federal, state and local government web resources and services.